Location: Dunedin
(45.8670°S, 170.5000°E)
Time: 02:18:47
(UTC+13:00)

Cosmos 1933 Rocket - Pass Details

Date: 24 January 2019
Orbit: 607 x 629 km, 82.5° (Epoch: 13 October)

Event Time Altitude Azimuth Distance (km) Brightness Sun altitude
Rises 22:41:06 0° 194° (SSW) 2,929 8.1 -12.1°
Reaches altitude 10° 22:43:23 10° 198° (SSW) 2,011 7.3 -12.4°
Maximum altitude 22:47:43 52° 274° (W) 777 4.3 -12.9°
Drops below altitude 10° 22:51:57 10° 350° (N) 1,973 5.8 -13.4°
Enters shadow 22:52:29 - 351° (N) 2,178 6.0 -13.5°
